Location: Baia Mare
(47.6567°N, 23.5850°E)
Time: 02:30:15
(UTC+03:00)

ISS - Pass Details

Date: 17 July 2018
Orbit: 402 x 408 km, 51.6° (Epoch: 22 July)

Event Time Altitude Azimuth Distance (km) Brightness Sun altitude
Exits shadow 02:41:05 11° 284° (WNW) 1,427 -1.1 -19.4°
Maximum altitude 02:44:06 40° 355° (N) 616 -2.5 -19.2°
Drops below altitude 10° 02:47:15 10° 67° (ENE) 1,472 -0.4 -19.0°
Sets 02:49:25 0° 75° (ENE) 2,334 0.5 -18.9°
